Погода в Костоме

Россия / Костромская область     58°19′36″N   41°54′06″E
темп.,
°C
ветер,
м/с
пор.,
м/с
влажн.,
%
обл.,
%
осадки,
мм/ч
давл.,
гПа
погр.,
м
20 июня, вс
вс2000:00+18зюз28915 0.0 1021142
03:00+16з23965 0.0 102253
06:00+20з24795 0.0 1021141
09:00+26зюз34575 0.0 1021572
12:00+29зюз45413 0.0 10201790
15:00+29зюз45413 0.0 10201929
18:00+28юз46552 0.0 1018696
21:00+22юз25825 0.0 101995
21 июня, пн
пн2100:00+19зюз22861 0.0 101938
03:00+17зюз23900 0.0 102050
06:00+21зюз25780 0.0 1020176
09:00+26зюз34560 0.0 1020622
12:00+30з34410 0.0 10202006
15:00+31зюз34380 0.0 10192467
18:00+28юз375662 0.0 1019383
21:00+23зюз257625 0.0 1020104
22 июня, вт
вт2200:00+21зюз2389100 0.1 102057
03:00+19зюз2293100 0.1 102146
06:00+21зюз2390100 0.3 1021126
09:00+27зюз236010 0.3 1021590
12:00+30зюз334455 0.0 10211672
15:00+31зюз323860 0.0 10202321
18:00+29зюз35514 0.0 1019493
21:00+22зюз23740 0.0 102050
23 июня, ср
ср2300:00+20зюз11795 0.0 102011
03:00+18юз11855 0.0 102111
06:00+22юз23755 0.0 1021121
09:00+28зюз22575 0.0 1021629
12:00+31з23424 0.0 10211655
15:00+33з23360 0.0 10202129
18:00+31зюз364833 0.0 1020446
21:00+24зюз38785 0.0 1019155
24 июня, чт
чт2400:00+22зюз238484 0.0 102043
03:00+20з228899 0.0 102035
06:00+23юз2677100 0.0 1020156
09:00+28з355395 0.0 1020509
12:00+32зюз453693 0.0 10192028
15:00+33з3531100 0.0 10182646
18:00+30юз3652100 0.0 1017299
21:00+24з277632 0.0 1016141